When you browse on this site, cookies collect data to enhance your experience and personalize the content and advertising you see.
Visit our Privacy Policy to learn more. By continuing to use the site, you agree to this use of cookies and data.
  • In Czech Republic
  • List of Countries
  • For 7 days
  • Water Temperature
  • Satellite Maps
  • Weather Map
  • Weather Widgets
  • user-avatar
    Login

    Hourly Weather Jutiapa

    Today, 21 July, Sunday

    Time Temperature Precipitation Wind Pressure Humidity
    00:00 +20°C° 0 mm 2 mps 672 mmHg 89%
    01:00 +20°C° 0 mm 2 mps 671 mmHg 89%
    02:00 +19°C° 0 mm 2 mps 671 mmHg 88%
    03:00 +19°C° 0 mm 2 mps 671 mmHg 88%
    04:00 +19°C° 0 mm 2 mps 671 mmHg 90%
    05:00 +19°C° 0 mm 2 mps 671 mmHg 91%
    06:00 +18°C° 0 mm 2 mps 671 mmHg 93%
    07:00 +20°C° 0 mm 2 mps 672 mmHg 86%
    08:00 +23°C° 0 mm 2 mps 673 mmHg 80%
    09:00 +25°C° 0 mm 2 mps 674 mmHg 73%
    10:00 +26°C° 0 mm 2 mps 674 mmHg 69%
    11:00 +27°C° 0 mm 2 mps 673 mmHg 66%
    12:00 +28°C° 0 mm 2 mps 673 mmHg 62%
    13:00 +29°C° 0 mm 2 mps 673 mmHg 61%
    14:00 +29°C° 0 mm 2 mps 672 mmHg 61%
    15:00 +29°C° 0 mm 2 mps 672 mmHg 60%
    16:00 +28°C° 0.4 mm 1 mps 672 mmHg 69%
    17:00 +26°C° 0.4 mm 1 mps 672 mmHg 79%
    18:00 +24°C° 0.4 mm 1 mps 671 mmHg 88%
    19:00 +23°C° 0.4 mm 1 mps 671 mmHg 89%
    20:00 +22°C° 0.4 mm 1 mps 672 mmHg 90%
    21:00 +21°C° 0.4 mm 1 mps 672 mmHg 91%
    22:00 +21°C° 0.1 mm 1 mps 672 mmHg 92%
    23:00 +20°C° 0.1 mm 1 mps 672 mmHg 92%

    Tomorrow, 22 July, Monday

    Time Temperature Precipitation Wind Pressure Humidity
    00:00 +20°C° 0.1 mm 1 mps 672 mmHg 92%
    01:00 +20°C° 0 mm 1 mps 672 mmHg 93%
    02:00 +20°C° 0 mm 1 mps 671 mmHg 93%
    03:00 +20°C° 0 mm 1 mps 671 mmHg 94%
    04:00 +20°C° 0 mm 1 mps 671 mmHg 94%
    05:00 +20°C° 0 mm 1 mps 671 mmHg 93%
    06:00 +20°C° 0 mm 1 mps 672 mmHg 93%
    07:00 +22°C° 0 mm 1 mps 672 mmHg 89%
    08:00 +23°C° 0 mm 1 mps 673 mmHg 84%
    09:00 +25°C° 0 mm 1 mps 674 mmHg 79%
    10:00 +26°C° 0 mm 1 mps 674 mmHg 74%
    11:00 +27°C° 0 mm 2 mps 674 mmHg 68%
    12:00 +28°C° 0 mm 2 mps 674 mmHg 63%
    13:00 +29°C° 0.1 mm 2 mps 673 mmHg 62%
    14:00 +29°C° 0.1 mm 2 mps 673 mmHg 60%
    15:00 +29°C° 0.1 mm 2 mps 672 mmHg 59%
    16:00 +27°C° 0.1 mm 1 mps 672 mmHg 68%
    17:00 +26°C° 0.1 mm 1 mps 672 mmHg 76%
    18:00 +24°C° 0.1 mm 1 mps 671 mmHg 85%
    19:00 +23°C° 0.1 mm 1 mps 672 mmHg 86%
    20:00 +22°C° 0.1 mm 1 mps 672 mmHg 88%
    21:00 +21°C° 0.1 mm 1 mps 673 mmHg 89%
    22:00 +21°C° 0.1 mm 1 mps 673 mmHg 90%
    23:00 +20°C° 0.1 mm 1 mps 673 mmHg 90%

    Day after tomorrow, 23 July, Tuesday

    Time Temperature Precipitation Wind Pressure Humidity
    00:00 +20°C° 0.1 mm 1 mps 673 mmHg 90%
    01:00 +20°C° 0 mm 1 mps 672 mmHg 89%
    02:00 +20°C° 0 mm 1 mps 672 mmHg 89%
    03:00 +20°C° 0 mm 1 mps 672 mmHg 89%
    04:00 +19°C° 0 mm 1 mps 672 mmHg 89%
    05:00 +19°C° 0 mm 1 mps 672 mmHg 90%
    06:00 +19°C° 0 mm 1 mps 672 mmHg 90%
    07:00 +21°C° 0 mm 1 mps 673 mmHg 85%
    08:00 +23°C° 0 mm 1 mps 674 mmHg 80%
    09:00 +25°C° 0 mm 1 mps 675 mmHg 75%
    10:00 +26°C° 0 mm 1 mps 674 mmHg 70%
    11:00 +28°C° 0 mm 1 mps 674 mmHg 65%
    12:00 +29°C° 0 mm 2 mps 674 mmHg 60%
    13:00 +29°C° 0.1 mm 2 mps 674 mmHg 61%
    14:00 +29°C° 0.1 mm 2 mps 673 mmHg 62%
    15:00 +28°C° 0.1 mm 2 mps 673 mmHg 63%
    16:00 +27°C° 0.3 mm 2 mps 673 mmHg 72%
    17:00 +25°C° 0.3 mm 1 mps 672 mmHg 80%
    18:00 +24°C° 0.3 mm 1 mps 672 mmHg 89%
    19:00 +23°C° 0.4 mm 1 mps 672 mmHg 91%
    20:00 +22°C° 0.4 mm 1 mps 673 mmHg 93%
    21:00 +21°C° 0.4 mm 1 mps 673 mmHg 95%
    22:00 +20°C° 0.2 mm 1 mps 673 mmHg 95%
    23:00 +20°C° 0.2 mm 1 mps 673 mmHg 95%

    24 July, Wednesday

    Time Temperature Precipitation Wind Pressure Humidity
    00:00 +20°C° 0.2 mm 1 mps 673 mmHg 95%
    01:00 +19°C° 0 mm 1 mps 672 mmHg 95%
    02:00 +19°C° 0 mm 1 mps 672 mmHg 95%
    03:00 +19°C° 0 mm 1 mps 671 mmHg 95%
    04:00 +18°C° 0 mm 2 mps 672 mmHg 95%
    05:00 +17°C° 0 mm 2 mps 672 mmHg 94%
    06:00 +17°C° 0 mm 2 mps 672 mmHg 93%
    07:00 +19°C° 0 mm 2 mps 673 mmHg 86%
    08:00 +21°C° 0 mm 2 mps 673 mmHg 80%
    09:00 +24°C° 0 mm 2 mps 674 mmHg 73%
    10:00 +26°C° 0 mm 2 mps 674 mmHg 68%
    11:00 +27°C° 0 mm 2 mps 674 mmHg 63%
    12:00 +28°C° 0 mm 2 mps 674 mmHg 58%
    13:00 +28°C° 0 mm 2 mps 673 mmHg 59%
    14:00 +28°C° 0 mm 2 mps 673 mmHg 60%
    15:00 +28°C° 0 mm 2 mps 672 mmHg 61%
    16:00 +27°C° 0.3 mm 2 mps 672 mmHg 70%
    17:00 +25°C° 0.3 mm 1 mps 672 mmHg 79%
    18:00 +24°C° 0.3 mm 1 mps 672 mmHg 88%
    19:00 +23°C° 0 mm 1 mps 672 mmHg 91%
    20:00 +22°C° 0 mm 1 mps 672 mmHg 93%
    21:00 +20°C° 0 mm 1 mps 672 mmHg 95%
    22:00 +20°C° 0 mm 1 mps 672 mmHg 96%
    23:00 +19°C° 0 mm 2 mps 672 mmHg 96%

    25 July, Thursday

    Time Temperature Precipitation Wind Pressure Humidity
    00:00 +18°C° 0 mm 2 mps 672 mmHg 96%
    01:00 +18°C° 0 mm 2 mps 671 mmHg 96%
    02:00 +18°C° 0 mm 2 mps 671 mmHg 95%
    03:00 +17°C° 0 mm 2 mps 670 mmHg 95%
    04:00 +17°C° 0 mm 2 mps 671 mmHg 95%
    05:00 +17°C° 0 mm 2 mps 671 mmHg 95%
    06:00 +17°C° 0 mm 2 mps 671 mmHg 95%
    07:00 +19°C° 0 mm 2 mps 672 mmHg 88%
    08:00 +21°C° 0 mm 2 mps 673 mmHg 81%
    09:00 +24°C° 0 mm 1 mps 674 mmHg 74%
    10:00 +25°C° 0.2 mm 2 mps 674 mmHg 72%
    11:00 +26°C° 0.2 mm 2 mps 674 mmHg 69%
    12:00 +27°C° 0.2 mm 2 mps 674 mmHg 67%
    13:00 +27°C° 0.4 mm 2 mps 673 mmHg 68%
    14:00 +27°C° 0.4 mm 1 mps 673 mmHg 70%
    15:00 +27°C° 0.4 mm 1 mps 672 mmHg 71%
    16:00 +26°C° 0.6 mm 1 mps 672 mmHg 78%
    17:00 +25°C° 0.6 mm 1 mps 672 mmHg 85%
    18:00 +21°C° 0.6 mm 0 mps 672 mmHg 91%
    19:00 +22°C° 0.3 mm 1 mps 672 mmHg 92%
    20:00 +21°C° 0.3 mm 1 mps 672 mmHg 93%
    21:00 +20°C° 0.3 mm 1 mps 672 mmHg 94%
    22:00 +20°C° 0 mm 1 mps 672 mmHg 94%
    23:00 +19°C° 0 mm 2 mps 672 mmHg 93%

    26 July, Friday

    Time Temperature Precipitation Wind Pressure Humidity
    00:00 +19°C° 0 mm 2 mps 672 mmHg 93%
    01:00 +18°C° 0 mm 2 mps 672 mmHg 94%
    02:00 +18°C° 0 mm 2 mps 671 mmHg 94%
    03:00 +18°C° 0 mm 2 mps 671 mmHg 95%
    04:00 +18°C° 0 mm 2 mps 671 mmHg 95%
    05:00 +18°C° 0 mm 2 mps 671 mmHg 95%
    06:00 +17°C° 0 mm 2 mps 672 mmHg 94%
    07:00 +19°C° 0 mm 2 mps 672 mmHg 89%
    08:00 +21°C° 0 mm 2 mps 673 mmHg 83%
    09:00 +24°C° 0 mm 2 mps 674 mmHg 77%
    10:00 +25°C° 0 mm 3 mps 674 mmHg 68%
    11:00 +27°C° 0 mm 3 mps 674 mmHg 60%
    12:00 +28°C° 0 mm 4 mps 674 mmHg 52%
    13:00 +28°C° 0 mm 4 mps 673 mmHg 53%
    14:00 +28°C° 0 mm 4 mps 673 mmHg 55%
    15:00 +28°C° 0 mm 4 mps 672 mmHg 56%
    16:00 +27°C° 0 mm 3 mps 672 mmHg 64%
    17:00 +25°C° 0 mm 2 mps 672 mmHg 71%
    18:00 +24°C° 0 mm 2 mps 672 mmHg 79%
    19:00 +23°C° 0 mm 2 mps 672 mmHg 80%
    20:00 +20°C° 0 mm 2 mps 673 mmHg 81%
    21:00 +19°C° 0 mm 2 mps 673 mmHg 83%
    22:00 +19°C° 0 mm 2 mps 673 mmHg 84%
    23:00 +19°C° 0 mm 2 mps 673 mmHg 86%
    Show more